Location: Saluda
(35.2377°N, 82.3468°W)
Time: 17:23:48
(UTC+00:00)

Transit 2A - Pass Details

Date: 10 October 2022
Orbit: 598 x 959 km, 66.7° (Epoch: 06 December)

Event Time Altitude Azimuth Distance (km) Brightness Sun altitude
Rises 03:15:37 0° 237° (WSW) 2,915 - -50.1°
Reaches altitude 10° 03:18:20 10° 252° (WSW) 1,974 - -50.6°
Maximum altitude 03:21:49 23° 305° (NW) 1,309 - -51.1°
Drops below altitude 10° 03:25:15 10° 358° (N) 1,939 - -51.6°
Sets 03:27:53 0° 13° (NNE) 2,850 - -52.0°
